Weather in Oranjestad

Aruba     12°30′29″N   70°00′44″W
temp.,
°C
wind,
m/s
gust,
m/s
humid.,
%
clouds,
%
prec.,
mm/h
press.,
hPa
HPBL,
m
19 april, mon
mon1923:00+26e121786100 0.0 1014841
02:00+26e131586100 0.1 10131037
05:00+26e121587100 0.0 10131021
08:00+26e12158552 0.1 10151018
11:00+26e12158484 0.0 1016947
14:00+26e111582100 0.0 1014902
17:00+26e12158598 0.0 1012821
20:00+26e13178458 0.0 1013765
20 april, tue
tue2023:00+26e121683100 0.0 1014857
02:00+26e12158576 0.0 10131075
05:00+26e11148582 0.1 10131139
08:00+26e12158524 0.1 10151046
11:00+26e11158364 0.0 1016993
14:00+26e11148695 0.0 1013996
17:00+26e11148484 0.0 1012798
20:00+26e1115856 0.0 1013844
21 april, wed
wed2123:00+26e1215850 0.0 1014930
02:00+26e1114850 0.0 1013999
05:00+26e1113845 0.1 10131142
08:00+26e11138278 0.2 10151110
11:00+26e10128367 0.0 1015990
14:00+26e1013825 0.0 1013867
17:00+26e1012845 0.0 1011802
20:00+26e1013860 0.0 1013864
22 april, thu
thu2223:00+26e1012860 0.0 1014957
02:00+26e1012865 0.1 1012989
05:00+26e912832 0.1 10121003
08:00+26e1012832 0.1 10141006
11:00+26e912840 0.0 1015777
14:00+26e1012850 0.0 1012845
17:00+26ene1012830 0.0 1010654
20:00+26ene1114855 0.0 1011697
23 april, fri
fri2323:00+26ene1114865 0.0 1013771
02:00+26e1012865 0.0 1012928
05:00+26e911845 0.1 1012978
08:00+26e912835 0.2 1014694
11:00+26e913865 0.0 1014763
14:00+26e911860 0.1 1012753
17:00+26ene912860 0.0 1010644
20:00+26ene1114860 0.0 1011674